Kuiper-00250

operational
NORAD ID: 67155 Int'l Des: 2025-301 Owner: KUIP Country: US Constellation: kuiper
LEOCIRCULAR

Über Kuiper-00250

Beschreibung wird geladen...

Live-Position

3D-Globus wird geladen...

Nächste Überflüge

Höhenverlauf

Altitude vs Time

uPlot chart will show altitude changes over time

Zweizeiliger Elementsatz

1 67155C 25301Y 25350.77789352 .00015225 00000+0 43750-3 0 3505
2 67155 51.8706 105.6455 0006263 105.3847 101.2025 15.35191733 14
Epoch: 16. Dez. 2025 • Age: 62 hours

Aktueller Status

Höhe 458.3 km
Geschwindigkeit 7.64 km/s
Subsatellitenpunkt 32.25°N, 51.73°W
Startdatum 16. Dez. 2025
Alter 2 days
Typ internet

Technische Details

Klassifizierung Payload
Masse 490.00 kg
Trockenmasse 490.00 kg
Gesamtmasse 490.00 kg
Länge 1.80 m
Durchmesser 0.70 m
Spannweite 5.00 m
Form Box + 2 pan
Hersteller KUIP
Bus-Typ Kuiper
Phasenstatus In Orbit
Besitzer/Staat KUIP/US

Große Konstellationen

Loading constellations...